Burlington, IA

10:24 PM CDT on May 24, 2018 (GMT -0500)
Burlington Regional

Weather History for KBRL - April, 2013

Change the Weather History Date:

Tuesday, April 30, 2013

  Actual Average Record
Temperature  
Mean Temperature 76 °F 59 °F  
Max Temperature 86 °F 70 °F 89 °F (2007)
Min Temperature 65 °F 48 °F 30 °F (1908)
Degree Days  
Heating Degree Days 0 7  
Month to date heating degree days 448 357  
Since 1 July heating degree days 5774 5462  
Cooling Degree Days 11 1  
Month to date cooling degree days 11 18  
Year to date cooling degree days 11 20  
Growing Degree Days 25 (Base 50)    
Moisture  
Dew Point 55 °F    
Average Humidity 55    
Maximum Humidity 78    
Minimum Humidity 31    
Precipitation  
Precipitation 0.00 in 0.15 in 1.94 in (1998)
Month to date precipitation 5.78 3.76  
Year to date precipitation 11.70 9.41  
Sea Level Pressure  
Sea Level Pressure 29.76 in    
Wind  
Wind Speed 15 mph (SSW)    
Max Wind Speed 26 mph    
Max Gust Speed 35 mph    
Visibility 10 miles    
Events      
T = Trace of Precipitation, MM = Missing Value Source: NWS Daily Summary

Daily Weather History Graph

Daily Weather History Graph

Search for Another Location

Airport or City:

Astronomy

Apr. 30, 2013 Rise Set
Actual Time 6:03 AM CDT 8:00 PM CDT
Civil Twilight 5:34 AM CDT 8:29 PM CDT
Nautical Twilight 4:58 AM CDT 9:06 PM CDT
Astronomical Twilight 4:19 AM CDT 9:45 PM CDT
Moon 12:23 AM CDT (4/30) 10:32 AM CDT (4/30)
Length of Visible Light 14h 55m
Length of Day
13h 56m
Waning Gibbous, 70% of the Moon is Illuminated
Apr 30
Waning Gibbous
May 2
Last Quarter
May 9
New
May 17
First Quarter
May 24
Full

Hourly Weather History & Observations

Time (CDT) Temp. Heat Index Dew Point Humidity Pressure Visibility Wind Dir Wind Speed Gust Speed Precip Events Conditions
12:53 AM 66.9 °F - 57.9 °F 73% 29.67 in 10.0 mi South 12.7 mph - N/A   Clear
1:53 AM 66.9 °F - 57.9 °F 73% 29.67 in 10.0 mi South 15.0 mph - N/A   Clear
2:53 AM 66.9 °F - 57.9 °F 73% 29.68 in 10.0 mi SSW 16.1 mph - N/A   Clear
3:53 AM 66.9 °F - 59.0 °F 76% 29.69 in 10.0 mi SSW 13.8 mph - N/A   Clear
4:53 AM 66.0 °F - 59.0 °F 78% 29.70 in 10.0 mi SSW 15.0 mph - N/A   Clear
5:53 AM 66.0 °F - 59.0 °F 78% 29.73 in 10.0 mi SSW 13.8 mph - N/A   Clear
6:53 AM 66.0 °F - 59.0 °F 78% 29.75 in 10.0 mi South 13.8 mph - N/A   Clear
7:53 AM 66.9 °F - 59.0 °F 76% 29.76 in 10.0 mi South 13.8 mph - N/A   Clear
8:53 AM 70.0 °F - 59.0 °F 68% 29.76 in 10.0 mi SSW 15.0 mph - N/A   Clear
9:53 AM 73.9 °F - 57.9 °F 57% 29.76 in 9.0 mi SSW 16.1 mph 25.3 mph N/A   Clear
10:53 AM 79.0 °F - 55.9 °F 45% 29.77 in 9.0 mi SW 20.7 mph 27.6 mph N/A   Clear
11:53 AM 82.0 °F 81.2 °F 53.1 °F 37% 29.76 in 10.0 mi SW 23.0 mph 33.4 mph N/A   Clear
12:53 PM 82.9 °F 82.1 °F 55.9 °F 39% 29.75 in 9.0 mi South 17.3 mph 24.2 mph N/A   Clear
1:53 PM 84.2 °F - 51.8 °F 33% 29.77 in 10.0 mi SSW 23.0 mph 32.2 mph N/A   Clear
2:53 PM 84.9 °F - 50.0 °F 30% 29.75 in 8.0 mi SW 19.6 mph - N/A   Clear
3:53 PM 84.0 °F - 52.0 °F 33% 29.76 in 10.0 mi South 19.6 mph 26.5 mph N/A   Clear
4:53 PM 82.9 °F - 51.1 °F 33% 29.77 in 10.0 mi SSW 17.3 mph 29.9 mph N/A   Clear
5:53 PM 82.0 °F - 51.1 °F 34% 29.78 in 10.0 mi South 17.3 mph 26.5 mph N/A   Clear
6:53 PM 80.1 °F - 51.1 °F 36% 29.79 in 9.0 mi SSW 15.0 mph 19.6 mph N/A   Clear
7:53 PM 75.0 °F - 52.0 °F 44% 29.80 in 10.0 mi South 8.1 mph - N/A   Clear
8:53 PM 72.0 °F - 52.0 °F 49% 29.82 in 10.0 mi SSE 4.6 mph - N/A   Clear
9:53 PM 73.0 °F - 53.1 °F 49% 29.84 in 10.0 mi SSE 9.2 mph - N/A   Clear
10:53 PM 71.1 °F - 55.9 °F 59% 29.85 in 10.0 mi South 11.5 mph - N/A   Clear
11:53 PM 70.0 °F - 55.9 °F 61% 29.88 in 10.0 mi South 12.7 mph - N/A   Clear